Wetbulb
53.49 53.82 53.79 53.99 54.04 54.18 54.20 54.30 54.45 54.58 54.69 54.88 55.11 54.96 54.91 54.74 54.81 53.59 48.49 52.07 54.52 60.28 60.50 54.82 52.00 59.11 61.01 60.36 59.50 58.30 51.14 49.23 49.21 48.91 48.91 52.83 52.77 56.14 58.25 59.25 60.81 61.46 62.33 63.30 65.76
53.32 53.69 53.81 53.80 53.92 53.89 54.01 53.99 54.14 54.56 54.71 54.74 54.70 54.80 54.56 54.36 52.99 49.34 55.66 56.28 58.03 59.43 53.35 51.23 49.29 55.18 56.26 56.18 58.20 54.68 51.25 51.41 54.32 53.06 49.91 51.30 53.24 54.86 56.08 56.96 59.79 60.50 62.30 62.95 64.18
53.13 53.40 53.46 53.72 53.74 53.75 53.97 54.10 54.47 54.74 54.90 54.95 54.64 54.49 54.23 54.41 48.67 50.24 58.69 56.20 58.10 58.33 53.65 54.16 53.02 50.27 52.21 56.01 55.81 56.02 51.52 54.99 55.23 54.77 52.60 51.32 53.26 55.99 54.62 54.69 60.15 60.25 61.29 62.01 62.08
53.26 53.60 53.53 53.56 53.64 53.62 53.88 54.25 54.63 54.93 54.55 54.77 54.33 54.30 53.96 52.67 40.22 51.17 55.95 57.10 57.48 55.40 53.99 53.90 52.23 48.17 48.66 49.78 54.75 52.07 55.61 55.84 56.15 56.30 52.77 51.40 53.52 53.70 54.73 55.16 60.07 60.73 61.32 61.41 62.44
52.89 53.14 53.21 53.05 53.34 53.57 53.81 54.22 54.71 54.61 54.61 54.53 54.19 54.13 53.85 47.42 46.55 52.91 55.57 56.78 54.55 52.33 49.28 48.40 50.33 49.31 46.34 49.30 51.39 51.61 53.21 55.46 56.17 56.05 55.93 55.10 53.35 53.99 55.36 57.83 58.91 59.37 60.10 60.92 62.40
52.51 52.57 52.71 52.84 53.11 53.39 54.11 54.27 54.57 54.57 54.84 55.09 54.26 53.77 51.02 44.12 52.42 54.69 54.98 54.92 53.94 52.39 49.98 48.93 49.50 51.81 49.39 48.40 48.95 51.78 52.27 53.17 55.00 55.41 56.22 54.56 55.44 56.65 57.52 60.18 60.11 61.09 61.50 62.22 61.87
52.96 52.46 52.46 52.60 52.83 53.37 54.23 54.25 54.39 54.59 55.56 55.07 54.38 53.85 49.89 46.92 53.84 55.55 55.36 54.07 53.93 52.08 50.00 50.75 49.96 49.31 50.42 47.84 50.91 50.33 47.71 50.37 52.32 53.88 53.95 55.27 52.81 54.41 58.10 59.42 59.05 60.33 61.05 61.39 62.08
53.00 52.85 52.31 52.48 52.68 53.31 54.00 54.35 54.12 55.03 55.86 55.11 54.57 53.85 47.17 53.52 55.86 54.22 54.66 53.08 54.07 53.93 51.92 51.91 50.50 48.18 47.69 51.48 49.07 46.10 47.26 44.05 49.73 51.90 52.79 53.02 48.34 55.43 58.32 57.92 58.15 59.00 59.76 60.23 61.50
52.54 52.58 51.85 52.06 52.33 52.83 53.63 53.47 54.18 55.66 55.61 55.05 54.36 51.66 45.06 53.86 49.75 52.53 53.52 50.49 52.19 52.22 52.47 51.69 50.01 46.52 46.23 43.63 43.05 45.45 41.10 43.66 46.07 51.18 51.11 50.26 48.58 54.11 56.64 56.89 56.85 58.00 58.73 59.25 60.38
52.10 52.10 51.22 51.51 52.06 52.66 52.61 53.71 55.89 55.73 55.39 55.20 54.34 48.23 48.30 46.02 50.44 51.38 52.81 52.17 49.72 49.72 48.26 48.04 46.85 43.87 43.82 41.44 36.41 39.89 41.95 43.42 43.53 48.36 50.03 49.03 48.61 52.26 54.66 55.57 55.88 56.92 57.88 58.50 59.28
51.30 51.51 51.72 51.37 51.89 52.19 53.26 54.01 51.00 48.89 50.09 45.85 46.05 45.31 46.78 50.61 52.06 49.60 51.32 49.42 49.41 47.20 42.29 45.90 41.59 39.29 41.53 42.94 42.67 42.47 42.36 42.77 45.81 48.46 47.59 47.95 48.56 50.69 53.54 54.10 54.58 55.66 56.58 57.64 58.43
51.26 51.05 50.99 51.22 51.71 51.93 53.32 49.64 48.42 49.65 43.85 48.08 47.88 47.61 49.25 49.80 44.88 47.42 50.69 45.08 44.82 41.12 44.11 41.83 38.71 42.72 43.62 42.30 41.28 41.14 40.19 41.25 45.26 46.90 47.33 47.12 47.24 50.50 52.21 53.12 54.43 55.14 55.97 56.98 58.01
51.25 50.72 50.86 51.01 51.53 53.34 51.78 50.17 54.17 52.90 44.83 43.96 46.91 46.14 46.69 48.30 44.32 44.89 47.62 45.81 43.32 40.93 41.04 38.88 40.76 43.39 41.33 40.36 38.63 39.33 38.65 39.93 40.92 45.09 47.20 46.10 44.79 47.60 51.30 53.19 54.09 54.92 55.86 56.47 56.85
51.37 50.55 50.93 50.60 49.80 53.91 51.04 53.37 54.60 53.27 40.71 39.27 42.84 45.75 46.88 47.70 43.01 48.24 48.80 45.92 42.83 39.83 40.82 40.47 43.04 40.75 40.12 39.34 40.39 36.24 41.40 40.87 40.73 40.90 37.54 46.00 37.10 45.47 48.65 49.75 51.61 53.06 54.45 55.31 56.38
51.47 51.00 50.80 49.98 51.67 52.07 51.99 54.86 54.35 50.90 30.23 39.94 42.44 49.51 47.67 44.04 44.07 43.96 48.67 46.85 40.53 40.35 41.21 38.59 40.12 40.16 39.01 39.76 41.73 38.55 41.89 40.40 41.29 39.81 40.68 40.95 38.98 43.46 48.22 47.07 49.70 52.33 53.56 54.86 55.79
51.31 51.18 49.93 50.18 53.05 53.46 54.86 54.28 51.02 38.14 26.92 37.46 42.41 41.89 42.28 43.65 42.85 43.98 44.29 47.24 46.17 42.03 43.32 41.64 45.71 43.61 42.31 43.26 43.24 42.92 40.06 40.21 40.43 39.55 33.81 39.59 39.81 40.77 44.18 46.87 49.20 51.72 52.97 54.02 54.73
51.08 49.84 51.04 53.79 51.17 55.08 55.35 50.02 37.93 32.22 39.78 36.80 38.07 41.75 41.02 39.56 40.25 40.75 40.30 40.13 38.35 34.63 35.73 40.06 40.66 43.74 44.02 40.13 43.14 40.73 36.77 30.38 29.57 30.88 30.38 40.29 38.42 41.10 47.02 48.64 49.42 50.21 51.34 53.73 55.66
50.13 47.97 50.29 54.64 56.32 54.71 52.31 42.60 30.27 35.26 36.05 41.52 40.68 40.85 37.45 39.13 39.47 39.63 38.47 37.37 41.16 39.79 36.46 33.04 30.99 38.25 40.29 39.72 38.10 38.08 36.45 31.27 24.31 28.92 32.46 38.87 35.14 40.61 47.72 49.76 50.81 51.35 53.05 53.90 55.79
48.86 55.10 55.15 55.19 56.14 54.45 47.09 36.06 35.82 36.22 38.85 38.07 39.52 36.28 36.53 38.19 38.44 38.34 38.35 36.87 39.40 41.22 33.12 32.85 32.86 41.20 41.80 43.55 42.53 37.90 33.47 40.42 33.22 34.45 32.76 37.17 40.12 44.33 47.29 48.23 49.62 50.82 51.62 54.70 57.28
50.75 53.25 52.93 54.30 55.26 51.88 43.16 34.30 37.48 40.28 40.66 40.27 34.32 36.55 34.10 37.05 36.70 37.02 36.56 39.06 38.55 41.10 42.79 37.92 30.37 39.28 39.33 41.78 43.04 40.50 41.71 33.44 34.89 25.34 26.49 35.23 37.01 38.24 43.91 45.58 47.94 50.22 51.43 53.51 57.09
50.86 48.23 51.36 53.71 53.54 47.36 38.11 37.07 38.42 41.77 41.86 38.68 37.26 35.82 36.67 35.89 37.01 36.29 35.81 39.66 40.97 40.66 42.79 40.07 36.16 35.63 40.35 36.58 35.20 38.22 36.93 36.87 35.67 35.34 28.25 31.70 36.57 45.88 46.66 48.73 49.11 50.06 51.89 53.80 58.69
48.39 43.71 52.60 53.38 43.62 44.74 38.29 38.09 38.89 40.19 43.14 41.02 41.04 39.54 37.47 37.83 35.13 36.01 35.63 38.27 43.18 42.38 37.83 41.53 37.25 32.27 35.02 41.05 42.37 39.69 36.25 34.63 31.84 30.42 35.93 33.75 37.08 48.85 49.44 49.73 49.89 50.48 51.68 53.89 58.52
43.21 44.83 53.28 50.33 38.19 37.87 38.65 37.97 39.33 39.45 40.11 39.17 38.05 40.09 41.01 37.02 32.71 36.97 38.43 42.37 42.78 41.21 38.61 40.74 36.06 29.97 31.78 37.80 40.85 37.57 37.59 39.24 38.46 38.82 33.17 31.50 36.82 49.08 49.09 48.34 49.78 50.21 51.58 52.94 54.52
42.77 40.01 46.48 47.71 44.44 37.99 36.77 36.64 36.63 41.13 40.55 40.63 39.84 40.31 39.17 38.04 39.78 35.25 37.01 40.13 42.02 41.86 42.70 41.26 37.19 31.85 29.13 33.26 37.11 34.72 36.84 38.62 37.99 33.24 34.28 35.41 38.54 43.90 46.54 47.23 49.03 50.18 51.86 52.34 53.44
44.39 40.82 42.24 39.10 41.21 40.17 39.84 37.59 35.48 35.70 40.60 41.90 38.54 38.33 36.53 33.43 36.40 35.66 37.53 39.31 41.12 42.28 41.65 38.15 33.52 36.20 36.61 38.10 37.88 36.85 36.16 37.15 36.56 37.72 34.49 37.46 38.39 42.99 45.86 47.15 48.90 50.59 50.77 51.08 52.36
40.70 39.50 42.07 40.64 40.55 39.05 37.63 36.86 35.37 36.79 38.00 36.48 35.65 38.63 37.84 34.56 35.20 32.99 36.37 37.02 36.53 40.68 39.03 40.33 34.76 36.59 34.39 37.73 38.03 35.73 37.72 38.04 37.94 38.22 38.30 39.03 38.80 45.11 46.55 47.33 47.32 48.26 49.78 50.50 52.53
42.63 45.00 38.63 38.02 38.91 36.82 36.68 36.79 36.81 38.31 39.19 40.57 38.79 37.50 37.07 38.63 41.73 42.54 41.98 41.11 39.55 37.27 35.92 36.53 34.87 33.49 30.29 36.09 36.08 31.78 36.73 38.32 38.83 40.42 39.89 36.72 41.91 46.21 45.71 45.87 47.29 48.50 49.83 51.36 53.41
MSLP
1022.23 1021.86 1021.46 1021.04 1020.64 1020.31 1019.95 1019.57 1019.14 1018.72 1018.19 1017.71 1017.34 1017.23 1016.91 1016.50 1015.84 1014.41 1013.49 1013.69 1013.50 1013.45 1012.86 1011.57 1010.80 1010.35 1010.04 1008.94 1008.65 1008.28 1006.51 1004.02 1003.18 1003.05 1003.28 1003.40 1002.50 1001.86 1001.79 1001.24 1001.25 1000.91 1000.70 1001.54 1002.03
1022.23 1021.79 1021.40 1021.00 1020.59 1020.18 1019.85 1019.48 1019.03 1018.49 1017.93 1017.55 1017.25 1016.94 1016.59 1016.30 1014.97 1013.53 1014.17 1013.88 1013.79 1013.51 1011.94 1010.96 1009.96 1009.68 1009.19 1008.60 1007.87 1007.15 1005.25 1003.52 1003.14 1003.00 1003.72 1003.44 1002.49 1001.62 1001.66 1001.17 1000.83 1001.11 1001.47 1001.87 1001.91
1022.24 1021.76 1021.33 1020.92 1020.49 1020.11 1019.72 1019.28 1018.77 1018.28 1017.82 1017.42 1017.16 1016.82 1016.56 1015.99 1014.18 1012.99 1013.90 1013.91 1013.53 1012.92 1011.77 1011.26 1010.23 1009.27 1008.61 1007.70 1006.91 1005.96 1004.10 1003.47 1003.22 1003.47 1004.21 1003.66 1002.54 1001.97 1001.65 1000.80 1000.42 1000.50 1001.10 1001.61 1002.09
1022.23 1021.75 1021.23 1020.79 1020.36 1019.89 1019.45 1019.01 1018.57 1018.05 1017.57 1017.26 1016.94 1016.80 1016.34 1015.31 1012.95 1013.08 1013.73 1013.55 1013.30 1012.60 1011.51 1010.79 1010.24 1009.13 1007.90 1006.59 1006.50 1005.55 1004.41 1004.22 1003.69 1003.57 1004.60 1003.98 1003.27 1001.99 1001.49 1001.14 1000.73 1001.35 1001.67 1002.17 1001.90
1022.13 1021.68 1021.20 1020.72 1020.25 1019.79 1019.33 1018.92 1018.53 1018.06 1017.50 1017.06 1016.86 1016.56 1015.46 1013.41 1012.65 1012.96 1013.45 1013.07 1012.65 1011.92 1011.24 1010.69 1009.94 1009.03 1007.28 1006.29 1006.14 1004.57 1004.18 1004.14 1004.05 1004.21 1003.92 1004.21 1003.00 1002.32 1001.28 1001.24 1001.21 1001.23 1001.52 1001.89 1001.94
1021.95 1021.49 1020.99 1020.39 1019.80 1019.25 1018.70 1018.52 1018.15 1017.73 1017.36 1016.97 1016.72 1016.48 1014.87 1012.92 1013.00 1012.98 1012.80 1012.69 1012.18 1011.59 1011.04 1010.72 1009.69 1008.93 1007.90 1006.64 1005.44 1004.74 1004.30 1004.01 1003.63 1003.46 1003.83 1003.70 1002.55 1002.67 1000.92 1001.41 1001.23 1001.46 1001.38 1001.28 1001.38
1021.71 1021.32 1020.80 1020.20 1019.59 1018.96 1018.30 1017.84 1017.66 1017.29 1016.90 1016.65 1016.60 1015.94 1014.37 1012.92 1012.88 1012.60 1012.35 1012.27 1012.26 1011.96 1010.98 1010.61 1010.01 1009.49 1007.87 1007.09 1006.42 1005.40 1004.58 1003.97 1002.94 1003.12 1002.65 1003.64 1002.45 1000.73 1000.77 1000.98 1000.67 1000.88 1000.96 1000.78 1000.93
1021.47 1021.08 1020.58 1019.97 1019.33 1018.61 1017.96 1017.52 1017.08 1016.60 1016.37 1016.42 1016.42 1015.39 1013.04 1012.79 1012.72 1012.24 1011.99 1011.52 1011.78 1011.92 1011.74 1010.96 1010.48 1009.49 1008.33 1007.55 1006.61 1005.73 1004.74 1002.80 1001.22 1002.58 1002.56 1003.36 1000.49 998.93 1000.14 999.96 999.96 999.94 1000.02 999.94 1000.02
1021.30 1020.77 1020.28 1019.76 1019.15 1018.39 1017.63 1017.11 1016.46 1016.22 1016.24 1016.27 1015.63 1014.54 1012.06 1012.59 1012.00 1011.79 1011.60 1011.38 1011.19 1010.94 1011.20 1011.10 1010.33 1009.07 1008.03 1007.39 1006.30 1004.79 1002.48 1001.28 1001.12 1000.89 1001.87 1002.53 1000.06 999.48 999.81 999.18 998.88 998.83 998.91 998.97 998.86
1021.23 1020.69 1020.17 1019.66 1019.05 1018.36 1017.67 1016.74 1016.34 1016.11 1015.76 1015.45 1014.98 1014.25 1012.25 1012.19 1012.08 1011.93 1011.37 1011.53 1011.18 1010.68 1010.37 1010.18 1009.25 1008.27 1007.40 1006.55 1003.88 1002.96 1002.29 1001.69 1000.89 1000.50 1000.60 1000.51 999.39 999.35 999.10 998.31 998.20 998.33 998.45 998.61 998.48
1021.17 1020.53 1019.98 1019.43 1018.88 1018.30 1017.10 1016.11 1015.72 1014.96 1014.36 1014.00 1013.80 1013.56 1012.64 1012.42 1012.09 1011.50 1011.19 1011.06 1010.77 1010.33 1009.35 1008.50 1008.37 1006.81 1006.33 1005.91 1004.98 1004.30 1003.10 1001.63 1000.71 1001.16 1000.84 999.59 999.02 998.38 998.89 998.53 998.02 998.03 998.17 998.23 998.13
1021.10 1020.52 1019.87 1019.23 1018.62 1017.99 1017.10 1015.56 1016.22 1016.51 1014.60 1013.72 1013.62 1013.42 1013.16 1013.07 1012.09 1010.84 1011.14 1010.78 1010.14 1009.48 1008.83 1008.46 1007.26 1007.22 1006.78 1006.63 1005.91 1004.95 1004.26 1002.64 1002.50 1002.39 1001.30 1000.12 998.64 998.21 998.30 997.45 997.53 997.45 997.53 997.50 997.82
1020.72 1020.12 1019.57 1018.96 1018.35 1017.43 1016.24 1016.16 1016.34 1016.26 1014.60 1013.38 1012.97 1012.68 1012.42 1012.40 1011.57 1011.04 1010.91 1010.43 1010.08 1009.48 1008.71 1007.96 1007.35 1007.28 1007.29 1006.94 1006.55 1005.79 1004.83 1003.74 1002.94 1002.48 1001.80 1000.93 998.85 998.18 997.60 997.50 997.34 997.47 997.62 997.62 997.43
1020.35 1019.62 1019.02 1018.55 1018.38 1016.75 1016.01 1016.41 1016.35 1016.32 1013.95 1012.89 1012.28 1012.09 1012.04 1011.77 1010.90 1011.09 1010.58 1010.78 1010.10 1009.44 1008.87 1008.16 1007.44 1007.34 1006.96 1006.53 1006.45 1005.30 1005.07 1004.55 1003.68 1002.92 1000.73 1001.19 997.86 997.46 997.06 996.46 996.43 996.45 996.59 996.47 996.63
1019.84 1019.13 1018.60 1018.55 1017.37 1016.07 1016.49 1016.39 1016.33 1016.20 1013.30 1012.88 1012.12 1012.25 1011.90 1011.62 1011.53 1010.50 1010.65 1010.33 1009.70 1009.15 1008.97 1007.67 1007.23 1006.82 1006.61 1006.30 1006.05 1005.12 1005.24 1004.55 1003.75 1002.88 1001.83 1000.47 999.00 996.39 996.58 995.58 995.44 995.52 995.66 995.75 995.80
1019.38 1018.58 1018.16 1018.00 1017.36 1016.55 1016.46 1016.53 1016.32 1014.70 1012.61 1012.30 1012.14 1011.69 1011.40 1010.94 1010.83 1010.48 1010.20 1009.82 1009.40 1008.90 1008.36 1007.57 1007.34 1007.11 1006.61 1006.49 1006.00 1005.62 1005.09 1004.51 1003.82 1002.72 1000.41 999.46 998.69 996.40 995.84 994.97 994.75 994.59 994.75 994.87 994.84
1019.05 1018.41 1018.03 1017.04 1016.25 1016.70 1016.43 1015.83 1014.50 1013.14 1013.04 1012.29 1012.07 1011.71 1011.40 1010.80 1010.54 1010.42 1009.84 1009.03 1009.00 1008.73 1007.73 1007.41 1006.37 1007.38 1007.87 1006.70 1005.74 1005.48 1004.94 1003.91 1002.59 1001.35 999.70 999.40 998.41 996.80 995.18 994.87 994.30 994.18 994.64 994.30 993.98
1018.70 1018.40 1017.85 1017.03 1016.66 1016.66 1015.87 1014.57 1013.63 1012.95 1012.77 1012.99 1012.50 1011.85 1011.17 1011.29 1010.70 1010.47 1009.86 1009.08 1009.24 1009.54 1008.74 1008.08 1007.09 1007.78 1008.66 1007.47 1005.53 1005.13 1004.70 1003.35 1001.76 1000.11 999.10 998.86 996.73 995.43 996.07 995.40 994.62 994.67 994.49 994.22 993.81
1018.25 1017.13 1016.57 1016.68 1016.74 1016.31 1015.10 1013.43 1012.77 1013.32 1013.72 1013.48 1012.85 1011.70 1011.09 1011.35 1011.18 1010.35 1009.69 1009.51 1009.54 1009.58 1009.74 1008.71 1007.53 1007.36 1007.90 1007.18 1006.15 1005.51 1004.97 1003.96 1002.68 1001.74 999.33 996.09 996.42 996.42 995.45 995.33 994.83 994.27 994.29 994.25 994.24
1017.96 1016.59 1016.14 1016.69 1016.60 1015.84 1014.43 1013.91 1013.65 1014.19 1014.34 1013.92 1013.09 1012.65 1011.78 1011.23 1011.04 1010.43 1010.14 1009.94 1009.78 1009.98 1009.87 1009.36 1008.66 1007.36 1007.88 1007.01 1005.38 1004.34 1004.70 1004.30 1003.20 1002.13 998.94 995.67 994.64 994.12 993.41 994.31 994.47 994.58 994.89 994.50 994.05
1017.86 1016.00 1016.43 1016.59 1016.35 1015.00 1014.48 1014.09 1014.50 1014.53 1014.77 1014.26 1013.50 1013.13 1012.56 1012.00 1011.59 1010.91 1010.44 1010.08 1009.99 1009.98 1009.89 1009.41 1009.13 1007.58 1006.60 1006.54 1005.47 1004.90 1004.27 1005.50 1004.84 1002.65 999.57 995.75 993.82 993.55 992.93 993.99 995.06 995.35 995.12 994.52 994.28
1018.01 1015.69 1016.40 1016.37 1015.64 1015.91 1014.91 1015.34 1015.82 1014.72 1014.69 1014.43 1014.12 1013.53 1012.97 1012.51 1012.01 1011.21 1010.54 1010.26 1010.26 1010.37 1009.74 1009.58 1009.31 1007.62 1006.09 1005.33 1005.00 1005.32 1005.32 1005.82 1004.44 1002.91 999.96 998.21 994.66 993.84 994.30 995.16 995.53 995.51 995.19 994.77 994.44
1018.72 1017.05 1016.29 1016.17 1015.62 1015.61 1015.40 1015.42 1015.59 1015.06 1014.56 1014.43 1014.10 1013.85 1013.53 1013.05 1012.60 1011.42 1010.87 1010.79 1010.84 1010.67 1010.43 1010.72 1009.33 1007.77 1005.53 1005.20 1004.68 1004.52 1004.89 1004.26 1004.22 1002.42 1001.16 998.21 995.09 995.08 995.08 994.72 995.03 995.44 995.42 995.10 994.52
1019.29 1017.03 1015.85 1016.17 1016.75 1016.42 1015.78 1015.30 1015.11 1015.27 1014.96 1014.73 1014.43 1014.13 1013.48 1012.69 1012.34 1011.65 1011.07 1010.95 1011.38 1011.28 1011.22 1011.62 1010.34 1008.88 1006.72 1004.65 1004.54 1004.36 1004.23 1004.01 1003.38 1002.33 1000.45 998.67 996.53 995.29 994.83 994.70 995.04 995.54 995.90 995.21 994.74
1019.66 1018.45 1018.53 1016.63 1016.66 1016.96 1016.61 1016.15 1015.57 1015.05 1015.10 1014.83 1014.18 1013.92 1013.76 1013.20 1012.23 1011.37 1011.26 1010.95 1010.88 1010.82 1011.09 1011.58 1009.92 1008.39 1006.82 1005.57 1004.82 1004.22 1003.70 1003.30 1002.61 1001.86 1000.60 998.85 997.52 996.19 995.76 995.77 995.79 996.18 996.16 995.46 994.78
1020.28 1020.18 1019.53 1018.60 1018.00 1017.43 1016.72 1015.91 1015.85 1015.47 1015.40 1014.68 1014.50 1013.97 1013.91 1013.21 1012.71 1011.55 1011.20 1011.21 1011.09 1010.50 1010.47 1010.87 1009.74 1008.48 1006.68 1005.47 1004.30 1003.23 1002.61 1002.26 1001.87 1001.35 1000.71 999.64 997.91 997.76 997.06 996.71 996.52 996.16 995.54 995.04 994.64
1021.79 1021.61 1021.45 1019.60 1018.04 1017.78 1017.15 1016.82 1016.68 1016.36 1015.59 1014.71 1014.37 1014.01 1013.35 1012.51 1011.72 1010.93 1010.58 1010.29 1010.71 1010.82 1011.12 1011.24 1010.18 1008.52 1006.33 1005.01 1003.82 1002.49 1001.36 1000.72 1000.38 1000.10 999.78 998.67 997.23 996.96 996.20 995.91 996.03 995.74 995.45 995.00 994.67
Wind_Speed
13 14 14 14 15 15 15 16 15 15 15 16 17 16 17 18 20 11 8 8 8 14 14 10 9 7 11 16 16 14 12 17 22 19 13 6 16 18 7 12 9 2 1 7 1
15 15 15 15 16 16 16 15 15 15 15 15 15 16 17 17 16 5 7 3 9 12 8 9 12 11 13 17 13 16 17 25 20 14 8 17 16 13 7 16 14 11 7 5 5
16 17 16 17 17 16 16 16 15 15 15 15 14 14 15 17 8 5 8 4 10 13 7 8 9 14 20 16 23 22 26 21 22 14 11 18 18 12 13 18 16 16 10 5 4
17 17 17 17 17 17 17 16 16 16 15 14 13 12 13 8 2 3 3 8 10 9 5 3 7 16 19 26 21 27 25 25 26 16 13 21 20 23 21 20 18 6 7 11 13
18 18 18 18 18 17 16 15 14 14 14 12 11 9 9 4 6 6 7 6 5 4 4 8 10 14 24 17 25 30 28 24 23 23 19 18 25 23 23 20 21 20 17 19 16
18 19 19 20 20 19 18 14 13 12 11 8 7 8 5 6 5 3 8 10 5 8 3 7 9 9 16 22 25 16 24 29 28 23 20 25 27 23 25 20 23 22 23 22 19
18 19 19 20 20 20 20 19 14 12 9 5 5 6 4 10 6 10 9 7 6 6 10 6 12 12 6 16 20 23 26 25 23 25 29 19 28 38 29 24 23 21 21 22 21
19 18 20 21 21 21 21 20 18 12 3 7 7 4 3 2 7 8 8 7 3 8 9 8 8 15 19 16 16 17 22 26 31 25 20 22 33 37 27 27 26 27 24 23 22
20 20 21 22 22 23 23 22 11 2 6 8 7 5 4 4 10 9 5 9 11 7 7 8 9 14 13 17 18 20 25 30 26 28 24 21 34 36 31 28 25 23 23 22 22
20 19 21 21 21 21 23 17 7 10 6 5 3 6 3 9 14 15 6 8 7 9 10 12 9 12 13 16 22 24 25 25 27 22 27 30 35 29 25 17 17 22 24 24 23
22 21 20 21 21 19 15 7 6 8 5 8 5 5 6 12 12 11 9 8 6 9 11 11 12 14 15 18 24 25 29 24 20 20 26 25 31 32 27 30 30 26 22 22 22
21 21 21 21 20 20 10 4 5 6 8 4 8 7 7 5 13 11 3 9 9 14 14 12 17 17 17 16 20 21 24 29 23 13 19 23 31 30 27 28 28 27 25 24 22
21 21 21 19 19 9 4 5 3 5 7 1 2 5 1 10 9 7 14 9 12 14 14 16 17 16 10 13 19 22 25 24 27 21 20 21 28 28 26 23 22 22 23 24 25
22 22 19 17 9 2 2 3 7 5 7 5 4 4 5 13 9 12 5 5 10 16 15 15 10 10 15 20 18 21 20 25 24 23 24 20 22 23 24 28 29 28 26 26 24
24 22 15 6 5 2 5 5 3 5 6 3 3 3 8 8 10 5 5 11 17 18 15 19 20 18 16 18 20 21 19 21 21 23 24 29 21 20 18 22 22 20 22 23 22
26 22 6 5 3 3 4 2 5 8 0 2 2 9 10 9 7 6 8 11 12 16 15 19 16 18 20 19 23 20 22 20 22 20 22 24 22 19 20 24 22 19 20 20 21
26 15 5 1 4 2 3 5 7 6 3 2 8 12 16 8 10 7 12 10 7 9 12 18 5 11 16 23 21 18 17 13 16 20 21 23 21 18 6 8 4 6 7 11 11
26 8 4 2 4 5 5 7 5 2 4 10 11 18 7 8 8 11 8 11 2 8 14 9 9 10 4 11 18 19 19 14 20 16 20 28 27 21 22 25 20 17 9 8 9
23 3 3 4 2 5 9 6 4 5 4 9 15 9 2 4 7 8 12 6 5 9 9 12 9 8 8 13 16 19 19 19 24 21 18 17 26 27 21 13 8 8 4 6 11
6 4 3 6 5 7 6 5 4 2 7 7 9 3 11 13 12 9 9 2 7 5 11 9 12 4 1 8 15 16 15 13 13 10 18 15 20 15 25 23 17 4 5 10 13
5 5 6 6 4 5 3 5 7 4 7 5 9 12 13 13 10 12 6 12 2 11 13 15 7 11 12 7 5 11 13 15 7 15 14 11 14 19 9 13 9 6 10 14 14
5 4 5 4 3 1 4 7 6 5 4 8 8 11 10 12 11 14 11 8 15 13 17 12 8 13 15 9 8 5 10 6 9 12 16 14 5 12 18 13 6 9 13 15 15
7 4 2 5 2 5 4 7 5 7 4 4 7 5 11 15 8 8 12 12 12 14 6 8 5 9 6 5 5 7 13 13 15 15 13 16 7 14 10 3 9 13 15 16 17
5 4 3 2 2 6 9 3 4 3 10 5 10 14 14 13 12 10 18 11 12 18 13 7 11 14 14 19 13 11 11 12 14 12 16 18 24 10 13 13 15 14 16 17 17
2 3 5 4 3 9 8 7 8 6 4 9 7 7 11 9 18 21 13 19 22 19 19 6 11 17 18 20 18 19 19 19 19 19 21 19 22 18 19 17 18 18 20 18 16
5 5 4 11 6 8 1 4 8 7 10 13 12 15 14 18 19 24 23 18 7 9 7 6 8 14 17 16 18 21 21 21 22 22 22 23 27 24 25 23 20 21 18 16 14
2 2 1 7 6 5 5 6 12 14 10 11 11 15 18 20 19 22 21 22 18 10 7 5 7 9 14 14 12 15 17 19 18 20 18 21 23 20 23 21 18 20 17 16 15
Wind_Direction
353 349 346 342 339 337 337 333 330 325 322 320 322 320 322 324 310 271 273 14 320 313 302 277 251 206 224 225 224 234 242 245 244 240 245 263 247 250 246 266 201 169 23 62 30
347 344 343 340 337 335 331 328 324 321 320 317 318 319 321 323 307 286 53 31 353 324 297 257 231 199 212 217 215 219 228 242 249 260 227 248 256 267 244 228 224 212 168 139 86
344 342 341 338 335 332 328 325 322 319 315 311 312 313 314 309 264 73 119 2 330 305 303 278 263 230 227 225 217 223 241 245 250 250 252 256 256 247 248 250 216 217 197 201 306
343 342 341 337 333 330 327 323 319 316 314 311 309 306 309 280 3 62 337 328 309 288 273 246 243 219 228 228 229 240 245 244 259 246 244 248 262 258 253 250 250 229 225 273 287
342 341 339 334 330 327 322 317 313 311 309 303 298 309 288 202 41 63 318 337 268 306 290 255 245 236 240 237 233 237 240 246 244 255 245 257 250 252 251 249 255 256 258 259 264
342 341 338 334 331 328 322 320 317 310 297 280 279 289 281 68 5 343 318 312 294 324 327 247 247 266 279 258 247 241 243 249 255 243 244 246 255 253 246 249 259 261 259 260 259
340 341 338 333 329 326 321 321 322 306 288 238 219 256 279 44 338 326 312 307 299 294 310 290 261 236 274 259 255 256 262 261 245 248 243 246 262 251 250 244 254 258 259 259 258
342 340 338 335 330 326 322 323 319 304 239 176 197 252 310 71 319 289 341 321 214 262 268 291 253 256 255 260 276 256 251 249 238 233 239 234 254 251 246 241 239 250 255 258 259
340 338 339 335 331 326 323 319 312 154 142 159 214 279 86 154 359 353 333 322 322 279 241 259 234 246 249 239 251 238 246 239 250 235 223 215 247 253 257 265 252 248 259 260 262
339 336 335 333 328 324 324 313 137 159 176 218 246 241 182 352 338 327 313 309 306 301 249 239 236 243 230 234 236 238 241 246 258 253 221 228 242 249 261 254 247 252 252 257 258
338 335 333 330 326 324 317 215 226 178 223 305 351 311 308 334 308 304 314 305 265 256 274 265 263 254 262 259 258 267 270 270 263 271 254 244 244 251 245 251 257 258 254 258 265
335 334 329 325 323 318 279 26 40 349 294 272 253 265 276 312 302 338 312 300 302 294 297 266 249 266 279 280 274 265 261 258 259 277 271 242 251 251 247 250 253 255 255 264 267
332 330 327 321 317 285 4 48 39 310 264 312 238 270 317 301 303 297 307 284 284 293 285 279 289 298 269 258 253 253 255 258 255 253 236 253 254 253 252 255 256 260 259 261 265
331 330 324 318 281 7 125 82 316 299 266 124 170 141 266 318 252 305 288 297 283 292 287 287 298 291 268 262 257 267 259 254 258 251 245 230 259 248 241 244 244 249 251 256 261
333 329 320 282 349 254 54 327 327 224 271 68 166 35 301 294 314 316 314 277 291 292 286 271 287 292 270 269 263 262 262 256 247 251 250 241 254 261 256 255 257 257 255 255 262
337 334 313 163 212 25 317 290 207 231 207 146 261 313 308 326 297 308 288 282 264 276 269 269 273 257 274 282 266 260 256 246 248 250 238 237 239 252 252 256 254 254 254 248 251
338 338 260 202 50 297 305 204 245 269 117 56 327 319 317 309 307 331 325 316 327 311 322 312 343 351 322 256 245 235 242 239 225 224 243 237 234 239 268 109 335 231 288 267 254
334 306 157 340 307 275 246 241 280 68 332 336 319 310 301 352 331 328 312 319 115 312 315 346 318 2 324 287 252 222 234 237 243 235 230 225 236 226 234 263 272 250 257 279 279
314 196 200 38 341 274 270 256 320 359 355 323 313 300 315 277 318 314 328 316 342 342 343 312 306 275 346 300 279 226 248 263 269 286 279 231 209 248 255 231 234 212 279 335 325
318 262 82 336 305 268 264 281 291 308 313 299 300 287 315 325 312 328 319 308 318 301 331 312 299 326 298 300 256 255 227 248 238 265 258 239 197 219 208 216 252 109 3 348 344
278 254 58 335 261 255 280 341 307 316 305 287 296 287 301 309 301 306 293 301 300 315 311 308 271 288 285 232 257 273 239 208 214 290 285 244 206 205 201 101 102 55 10 5 357
311 264 48 300 245 215 286 347 343 290 208 272 277 279 283 298 290 291 287 292 320 314 301 331 292 286 290 278 224 169 247 346 270 232 248 275 325 104 116 132 82 16 8 359 2
322 301 95 287 342 326 332 298 266 283 285 290 282 272 305 288 297 293 277 298 293 299 315 356 269 300 285 206 201 216 244 243 243 274 258 272 244 157 184 179 11 2 353 342 347
298 297 146 49 21 318 339 314 298 250 284 284 278 293 286 291 280 275 286 290 294 291 300 320 266 258 277 295 321 295 273 254 270 263 264 260 264 221 225 305 320 340 329 332 335
332 52 3 309 333 324 303 286 293 307 262 294 283 279 297 287 300 290 297 301 299 280 261 251 260 272 271 276 275 275 270 265 257 260 261 264 269 268 275 301 316 317 302 310 320
332 347 354 292 300 290 59 294 305 314 314 289 272 295 302 285 287 290 298 301 262 289 263 230 261 274 275 264 265 268 266 260 257 254 254 259 264 268 274 276 280 287 297 305 317
38 122 242 303 307 299 305 335 316 318 299 269 285 299 290 287 295 295 286 276 259 244 253 244 265 277 267 274 297 278 266 264 259 254 255 254 261 270 269 268 272 278 292 297 303